CW6641 Weather Reports


Display with metric or nautical units.
time (UTC)temp
F
wind
direction
speed
MPH
gust
MPH
rain 1hr
in
rain 24hr
in
rain mn
in
humidity
%
barometer
mb
20260508080714 49 0.0 0.0 0.00 0.00 0.00 68 1015.4
20260508080212 49 0.0 0.0 0.00 0.00 0.00 68 1015.6
20260508075708 49 0.0 0.0 0.00 0.00 0.00 68 1015.6
20260508075206 49 0.0 0.0 0.00 0.00 0.00 69 1015.6
20260508074703 49 0.0 0.0 0.00 0.00 0.00 70 1015.7
20260508074200 49 0.0 0.0 0.00 0.00 0.00 68 1015.4
20260508073657 50 0.0 0.0 0.00 0.00 0.00 67 1015.6
20260508073155 50 0.0 0.0 0.00 0.00 0.00 66 1015.5
20260508072650 50 0.0 0.0 0.00 0.00 0.00 66 1015.4
20260508072148 50 0.0 0.0 0.00 0.00 0.00 66 1015.7
20260508071645 50 0.0 0.0 0.00 0.00 0.00 67 1015.7
20260508071144 49 0.0 0.0 0.00 0.00 0.00 66 1015.6
20260508070641 49 0.0 0.0 0.00 0.00 0.00 68 1015.5
20260508070139 48 0.0 0.0 0.00 0.00 0.00 70 1015.6
20260508065636 48 0.0 0.0 0.00 0.00 0.00 70 1015.9
20260508065134 48 0.0 0.0 0.00 0.00 0.00 70 1015.8
20260508064631 48 0.0 0.0 0.00 0.00 0.00 71 1015.8
20260508064129 48 0.0 0.0 0.00 0.00 0.00 70 1015.8
20260508063626 49 0.0 0.0 0.00 0.00 0.00 68 1015.9
20260508063125 49 0.0 0.0 0.00 0.00 0.00 68 1015.9
20260508062622 49 0.0 0.0 0.00 0.00 0.00 68 1015.8
20260508062118 49 0.0 0.0 0.00 0.00 0.00 69 1016.0
20260508061615 49 0.0 0.0 0.00 0.00 0.00 68 1016.0
20260508061113 48 0.0 0.0 0.00 0.00 0.00 68 1016.1
20260508060609 49 0.0 0.0 0.00 0.00 0.00 69 1016.0
20260508060107 49 0.0 0.0 0.00 0.00 0.00 67 1016.1
20260508055602 49 0.0 0.0 0.00 0.00 0.00 68 1016.1
20260508055059 49 0.0 0.0 0.00 0.00 0.00 68 1016.0
20260508054556 49 0.0 0.0 0.00 0.00 0.00 65 1016.0
20260508054053 50 0.0 0.0 0.00 0.00 0.00 65 1016.3
20260508053549 50 0.0 0.0 0.00 0.00 0.00 64 1016.1
20260508053048 50 0.0 0.0 0.00 0.00 0.00 64 1016.2
20260508052545 51 0.0 0.0 0.00 0.00 0.00 63 1016.1
20260508052042 51 0.0 0.0 0.00 0.00 0.00 62 1016.1
20260508051538 51 0.0 0.0 0.00 0.00 0.00 62 1016.2
20260508051033 51 0.0 0.0 0.00 0.00 0.00 62 1016.0
20260508050530 51 0.0 0.0 0.00 0.00 0.00 62 1016.3
20260508050027 52 0.0 0.0 0.00 0.00 0.00 60 1016.1
20260508045523 52 0.0 0.0 0.00 0.00 0.00 60 1016.2
20260508045021 52 0.0 0.0 0.00 0.00 0.00 60 1016.3
20260508044518 52 0.0 0.0 0.00 0.00 0.00 59 1016.5
20260508044014 53 0.0 0.0 0.00 0.00 0.00 59 1016.3
20260508043511 53 0.0 0.0 0.00 0.00 0.00 59 1016.4
20260508043008 53 0.0 0.0 0.00 0.00 0.00 59 1016.4
20260508042505 53 0.0 0.0 0.00 0.00 0.00 60 1016.3
20260508042002 53 0.0 0.0 0.00 0.00 0.00 59 1016.3
20260508041458 53 0.0 0.0 0.00 0.00 0.00 59 1016.3
20260508040955 53 0.0 0.0 0.00 0.00 0.00 59 1016.3
20260508040452 53 0.0 0.0 0.00 0.00 0.00 60 1016.2
20260508035950 52 0.0 0.0 0.00 0.00 0.00 60 1016.2
20260508035446 52 0.0 0.0 0.00 0.00 0.00 60 1016.1
20260508034943 52 0.0 0.0 0.00 0.00 0.00 61 1016.1
20260508034441 51 0.0 0.0 0.00 0.00 0.00 63 1016.1
20260508033937 51 0.0 0.0 0.00 0.00 0.00 64 1016.0
20260508033436 51 0.0 0.0 0.00 0.00 0.00 64 1016.2
20260508032932 51 0.0 0.0 0.00 0.00 0.00 65 1016.2
20260508032430 51 0.0 0.0 0.00 0.00 0.00 63 1015.9
20260508031926 51 0.0 0.0 0.00 0.00 0.00 63 1016.1
20260508031424 51 0.0 0.0 0.00 0.00 0.00 64 1016.1
20260508030919 51 0.0 0.0 0.00 0.00 0.00 62 1016.2
20260508030417 51 0.0 0.0 0.00 0.00 0.00 62 1016.2
20260508025914 52 0.0 0.0 0.00 0.00 0.00 61 1016.0
20260508025410 52 0.0 0.0 0.00 0.00 0.00 61 1016.2
20260508024907 52 0.0 0.0 0.00 0.00 0.00 59 1016.0
20260508024404 52 0.0 0.0 0.00 0.00 0.00 59 1016.0
20260508023901 53 0.0 0.0 0.00 0.00 0.00 59 1016.1
20260508023358 53 0.0 0.0 0.00 0.00 0.00 58 1016.1
20260508022854 53 0.0 0.0 0.00 0.00 0.00 57 1016.2
20260508022350 53 0.0 0.0 0.00 0.00 0.00 57 1016.1
20260508021847 53 0.0 0.0 0.00 0.00 0.00 56 1016.1
20260508021343 54 0.0 0.0 0.00 0.00 0.00 55 1015.9
20260508020839 54 0.0 0.0 0.00 0.00 0.00 55 1016.0
20260508020337 55 0.0 0.0 0.00 0.00 0.00 54 1015.9
20260508015834 55 0.0 0.0 0.00 0.00 0.00 54 1015.6
20260508015332 55 0.0 0.0 0.00 0.00 0.00 53 1015.8
20260508014828 55 0.0 0.0 0.00 0.00 0.00 52 1015.7
20260508014325 56 0.0 0.0 0.00 0.00 0.00 51 1015.6
20260508013820 56 0.0 0.0 0.00 0.00 0.00 51 1015.4
20260508013317 56 0.0 0.0 0.00 0.00 0.00 50 1015.2
20260508012814 57 0.0 0.0 0.00 0.00 0.00 48 1015.2
20260508012311 57 0.0 0.0 0.00 0.00 0.00 48 1015.4
20260508011809 57 0.0 0.0 0.00 0.00 0.00 48 1015.2
20260508011307 58 0.0 0.0 0.00 0.00 0.00 46 1015.1
20260508010803 59 0.0 0.0 0.00 0.00 0.00 45 1015.0
20260508010302 59 0.0 0.0 0.00 0.00 0.00 44 1015.0
20260508005758 60 0.0 0.0 0.00 0.00 0.00 43 1015.0
20260508005255 60 0.0 0.0 0.00 0.00 0.00 42 1015.4
20260508004750 60 0.0 0.0 0.00 0.00 0.00 41 1015.1
20260508004247 60 0.0 0.0 0.00 0.00 0.00 40 1015.1
20260508003743 61 0.0 0.0 0.00 0.00 0.00 39 1015.2
20260508003241 61 0.0 0.0 0.00 0.00 0.00 39 1015.1
20260508002737 61 0.0 0.0 0.00 0.00 0.00 39 1015.0
20260508002235 61 0.0 0.0 0.00 0.00 0.00 39 1015.1
20260508001730 61 0.0 0.0 0.00 0.00 0.00 39 1015.0
20260508001226 61 0.0 0.0 0.00 0.00 0.00 39 1014.9
20260508000723 61 0.0 0.0 0.00 0.00 0.00 39 1015.0
20260508000220 61 0.0 0.0 0.00 0.00 0.00 38 1015.1
20260507235716 61 0.0 0.0 0.00 0.00 0.00 37 1014.8
20260507235214 62 0.0 0.0 0.00 0.00 0.00 37 1014.9
20260507234711 62 0.0 0.0 0.00 0.00 0.00 36 1014.9
20260507234207 62 0.0 0.0 0.00 0.00 0.00 36 1014.9
20260507233704 62 0.0 0.0 0.00 0.00 0.00 36 1015.2
20260507233202 62 0.0 0.0 0.00 0.00 0.00 35 1014.9
20260507232659 62 0.0 0.0 0.00 0.00 0.00 36 1014.8
20260507232156 62 0.0 0.0 0.00 0.00 0.00 34 1014.9
20260507231652 62 0.0 0.0 0.00 0.00 0.00 33 1015.0
20260507231149 62 0.0 0.0 0.00 0.00 0.00 33 1015.1
20260507230646 62 0.0 0.0 0.00 0.00 0.00 34 1015.0
20260507230143 62 0.0 0.0 0.00 0.00 0.00 36 1015.1
20260507225643 62 0.0 0.0 0.00 0.00 0.00 35 1014.9
20260507225140 62 0.0 0.0 0.00 0.00 0.00 34 1015.4
20260507224635 62 0.0 0.0 0.00 0.00 0.00 33 1015.4
20260507224132 62 0.0 0.0 0.00 0.00 0.00 33 1015.4
20260507223628 62 0.0 0.0 0.00 0.00 0.00 33 1015.5
20260507223125 62 0.0 0.0 0.00 0.00 0.00 35 1015.5
20260507222622 62 0.0 0.0 0.00 0.00 0.00 31 1015.4
20260507222119 62 0.0 0.0 0.00 0.00 0.00 34 1015.5
20260507221614 62 0.0 0.0 0.00 0.00 0.00 36 1015.2
20260507221111 62 0.0 0.0 0.00 0.00 0.00 35 1015.2
20260507220609 62 0.0 0.0 0.00 0.00 0.00 34 1015.5
20260507220106 62 0.0 0.0 0.00 0.00 0.00 35 1015.4
20260507215602 62 0.0 0.0 0.00 0.00 0.00 33 1015.4
20260507215100 62 0.0 0.0 0.00 0.00 0.00 34 1015.6
20260507214557 62 0.0 0.0 0.00 0.00 0.00 37 1015.5
20260507214053 62 0.0 0.0 0.00 0.00 0.00 36 1015.4
20260507213549 62 0.0 0.0 0.00 0.00 0.00 35 1015.4
20260507213047 62 0.0 0.0 0.00 0.00 0.00 36 1015.4
20260507212542 62 0.0 0.0 0.00 0.00 0.00 36 1015.1
20260507212040 62 0.0 0.0 0.00 0.00 0.00 34 1015.2
20260507211536 62 0.0 0.0 0.00 0.00 0.00 34 1015.0
20260507211032 62 0.0 0.0 0.00 0.00 0.00 36 1015.1
20260507210530 62 0.0 0.0 0.00 0.00 0.00 36 1015.2
20260507210026 62 0.0 0.0 0.00 0.00 0.00 36 1015.2
20260507205523 62 0.0 0.0 0.00 0.00 0.00 36 1015.4
20260507205019 62 0.0 0.0 0.00 0.00 0.00 34 1015.5
20260507204516 62 0.0 0.0 0.00 0.00 0.00 34 1015.6
20260507204014 62 0.0 0.0 0.00 0.00 0.00 35 1015.6
20260507203511 62 0.0 0.0 0.00 0.00 0.00 36 1015.7
20260507203008 62 0.0 0.0 0.00 0.00 0.00 36 1015.6
20260507202504 62 0.0 0.0 0.00 0.00 0.00 35 1015.7
20260507202000 62 0.0 0.0 0.00 0.00 0.00 34 1015.6
20260507201455 62 0.0 0.0 0.00 0.00 0.00 36 1015.4
20260507200952 62 0.0 0.0 0.00 0.00 0.00 35 1015.5
20260507200448 62 0.0 0.0 0.00 0.00 0.00 36 1015.7
20260507195944 62 0.0 0.0 0.00 0.00 0.00 32 1015.8
20260507195442 62 0.0 0.0 0.00 0.00 0.00 33 1016.0
20260507194939 62 0.0 0.0 0.00 0.00 0.00 34 1016.1
20260507194435 62 0.0 0.0 0.00 0.00 0.00 34 1016.0
20260507193931 62 0.0 0.0 0.00 0.00 0.00 34 1015.9
20260507193429 62 0.0 0.0 0.00 0.00 0.00 31 1015.8
20260507192925 62 0.0 0.0 0.00 0.00 0.00 32 1015.9
20260507192421 62 0.0 0.0 0.00 0.00 0.00 31 1016.0
20260507191918 62 0.0 0.0 0.00 0.00 0.00 32 1016.1
20260507191414 62 0.0 0.0 0.00 0.00 0.00 34 1016.2
20260507190911 62 0.0 0.0 0.00 0.00 0.00 35 1016.3
20260507190409 61 0.0 0.0 0.00 0.00 0.00 35 1016.3
20260507185908 61 0.0 0.0 0.00 0.00 0.00 35 1016.2
20260507185404 61 0.0 0.0 0.00 0.00 0.00 33 1016.4
20260507184901 61 0.0 0.0 0.00 0.00 0.00 33 1016.3
20260507184400 61 0.0 0.0 0.00 0.00 0.00 34 1016.1
20260507183856 60 0.0 0.0 0.00 0.00 0.00 32 1016.2
20260507183353 60 0.0 0.0 0.00 0.00 0.00 33 1016.1
20260507182851 60 0.0 0.0 0.00 0.00 0.00 34 1016.3
20260507182346 60 0.0 0.0 0.00 0.00 0.00 34 1016.2
20260507181842 60 0.0 0.0 0.00 0.00 0.00 36 1016.6
20260507181338 60 0.0 0.0 0.00 0.00 0.00 34 1016.3
20260507180836 60 0.0 0.0 0.00 0.00 0.00 35 1016.8
20260507180332 60 0.0 0.0 0.00 0.00 0.00 33 1016.6
20260507175828 60 0.0 0.0 0.00 0.00 0.00 34 1016.5
20260507175325 60 0.0 0.0 0.00 0.00 0.00 33 1016.6
20260507174822 59 0.0 0.0 0.00 0.00 0.00 37 1016.4
20260507174320 59 0.0 0.0 0.00 0.00 0.00 34 1016.7
20260507173817 59 0.0 0.0 0.00 0.00 0.00 36 1016.9
20260507173314 59 0.0 0.0 0.00 0.00 0.00 32 1016.9
20260507172811 59 0.0 0.0 0.00 0.00 0.00 34 1016.9
20260507172308 59 0.0 0.0 0.00 0.00 0.00 31 1017.1
20260507171803 59 0.0 0.0 0.00 0.00 0.00 33 1017.0
20260507171301 59 0.0 0.0 0.00 0.00 0.00 31 1016.9
20260507170757 59 0.0 0.0 0.00 0.00 0.00 34 1017.1
20260507170254 58 0.0 0.0 0.00 0.00 0.00 32 1017.0
20260507165750 58 0.0 0.0 0.00 0.00 0.00 35 1016.8
20260507165246 58 0.0 0.0 0.00 0.00 0.00 34 1017.0
20260507164742 58 0.0 0.0 0.00 0.00 0.00 34 1017.2
20260507164239 58 0.0 0.0 0.00 0.00 0.00 33 1017.1
20260507163736 58 0.0 0.0 0.00 0.00 0.00 36 1017.1
20260507163234 58 0.0 0.0 0.00 0.00 0.00 32 1017.4
20260507162730 58 0.0 0.0 0.00 0.00 0.00 35 1017.4
20260507162226 58 0.0 0.0 0.00 0.00 0.00 34 1017.4
20260507161723 57 0.0 0.0 0.00 0.00 0.00 34 1017.1
20260507161219 57 0.0 0.0 0.00 0.00 0.00 36 1017.4
20260507160715 57 0.0 0.0 0.00 0.00 0.00 34 1017.5
20260507160212 57 0.0 0.0 0.00 0.00 0.00 36 1017.7
20260507155708 57 0.0 0.0 0.00 0.00 0.00 35 1017.5
20260507155204 57 0.0 0.0 0.00 0.00 0.00 34 1017.9
20260507154701 57 0.0 0.0 0.00 0.00 0.00 34 1017.6
20260507154159 57 0.0 0.0 0.00 0.00 0.00 37 1017.7
20260507153655 57 0.0 0.0 0.00 0.00 0.00 35 1017.7
20260507153151 57 0.0 0.0 0.00 0.00 0.00 33 1017.6
20260507152648 57 0.0 0.0 0.00 0.00 0.00 38 1017.4
20260507152144 57 0.0 0.0 0.00 0.00 0.00 37 1017.4
20260507151640 57 0.0 0.0 0.00 0.00 0.00 38 1017.6
20260507151137 56 0.0 0.0 0.00 0.00 0.00 36 1017.7
20260507150634 56 0.0 0.0 0.00 0.00 0.00 38 1017.6
20260507150131 56 0.0 0.0 0.00 0.00 0.00 37 1017.7
20260507145626 56 0.0 0.0 0.00 0.00 0.00 40 1017.7
20260507145124 56 0.0 0.0 0.00 0.00 0.00 36 1017.8
20260507144620 56 0.0 0.0 0.00 0.00 0.00 36 1017.8
20260507144119 56 0.0 0.0 0.00 0.00 0.00 39 1017.6
20260507143615 55 0.0 0.0 0.00 0.00 0.00 42 1017.6
20260507143112 55 0.0 0.0 0.00 0.00 0.00 41 1017.6
20260507142607 55 0.0 0.0 0.00 0.00 0.00 44 1017.6
20260507142105 55 0.0 0.0 0.00 0.00 0.00 42 1017.7
20260507141601 55 0.0 0.0 0.00 0.00 0.00 46 1017.5
20260507141057 54 0.0 0.0 0.00 0.00 0.00 48 1017.7
20260507140554 54 0.0 0.0 0.00 0.00 0.00 51 1017.5
20260507140051 53 0.0 0.0 0.00 0.00 0.00 51 1017.7
20260507135548 53 0.0 0.0 0.00 0.00 0.00 53 1017.7
20260507135046 53 0.0 0.0 0.00 0.00 0.00 50 1017.7
20260507134542 53 0.0 0.0 0.00 0.00 0.00 54 1017.6
20260507134038 53 0.0 0.0 0.00 0.00 0.00 53 1017.5
20260507133534 52 0.0 0.0 0.00 0.00 0.00 53 1017.6
20260507133032 52 0.0 0.0 0.00 0.00 0.00 57 1017.3
20260507132528 52 0.0 0.0 0.00 0.00 0.00 57 1017.4
20260507132025 51 0.0 0.0 0.00 0.00 0.00 57 1017.4
20260507131522 51 0.0 0.0 0.00 0.00 0.00 61 1017.4
20260507131019 51 0.0 0.0 0.00 0.00 0.00 63 1017.6
20260507130516 50 0.0 0.0 0.00 0.00 0.00 63 1017.3
20260507130014 50 0.0 0.0 0.00 0.00 0.00 63 1017.3
20260507125512 50 0.0 0.0 0.00 0.00 0.00 65 1017.4
20260507125011 49 0.0 0.0 0.00 0.00 0.00 67 1017.2
20260507124506 49 0.0 0.0 0.00 0.00 0.00 68 1017.2
20260507124004 48 0.0 0.0 0.00 0.00 0.00 69 1017.2
20260507123501 48 0.0 0.0 0.00 0.00 0.00 70 1017.3
20260507122957 48 0.0 0.0 0.00 0.00 0.00 70 1017.2
20260507122453 47 0.0 0.0 0.00 0.00 0.00 72 1017.3
20260507121949 47 0.0 0.0 0.00 0.00 0.00 74 1017.3
20260507121445 46 0.0 0.0 0.00 0.00 0.00 76 1017.3
20260507120941 46 0.0 0.0 0.00 0.00 0.00 76 1017.1
20260507120438 46 0.0 0.0 0.00 0.00 0.00 78 1017.0
20260507115935 45 0.0 0.0 0.00 0.00 0.00 79 1016.8
20260507115430 44 0.0 0.0 0.00 0.00 0.00 79 1017.1
20260507114927 44 0.0 0.0 0.00 0.00 0.00 80 1017.0
20260507114423 44 0.0 0.0 0.00 0.00 0.00 80 1017.0
20260507113920 44 0.0 0.0 0.00 0.00 0.00 79 1016.9
20260507113417 44 0.0 0.0 0.00 0.00 0.00 79 1017.2
20260507112914 44 0.0 0.0 0.00 0.00 0.00 79 1017.0
20260507112412 44 0.0 0.0 0.00 0.00 0.00 79 1016.8
20260507111909 44 0.0 0.0 0.00 0.00 0.00 79 1017.0
20260507111406 44 0.0 0.0 0.00 0.00 0.00 79 1017.1
20260507110902 44 0.0 0.0 0.00 0.00 0.00 79 1016.9
20260507110358 44 0.0 0.0 0.00 0.00 0.00 79 1016.9
20260507105855 44 0.0 0.0 0.00 0.00 0.00 79 1016.9
20260507105352 45 0.0 0.0 0.00 0.00 0.00 79 1017.0
20260507104849 45 0.0 0.0 0.00 0.00 0.00 79 1017.1
20260507104345 45 0.0 0.0 0.00 0.00 0.00 78 1016.8
20260507103841 45 0.0 0.0 0.00 0.00 0.00 77 1016.9
20260507103338 45 0.0 0.0 0.00 0.00 0.00 77 1016.9
20260507102835 46 0.0 0.0 0.00 0.00 0.00 77 1016.9
20260507102331 46 0.0 0.0 0.00 0.00 0.00 77 1016.9
20260507101828 46 0.0 0.0 0.00 0.00 0.00 77 1017.0
20260507101327 46 0.0 0.0 0.00 0.00 0.00 77 1016.7
20260507100825 46 0.0 0.0 0.00 0.00 0.00 76 1016.9
20260507100323 46 0.0 0.0 0.00 0.00 0.00 76 1017.1
20260507095821 46 0.0 0.0 0.00 0.00 0.00 76 1016.7
20260507095317 46 0.0 0.0 0.00 0.00 0.00 77 1017.0
20260507094814 46 0.0 0.0 0.00 0.00 0.00 77 1016.8
20260507094311 47 0.0 0.0 0.00 0.00 0.00 78 1016.7
20260507093808 47 0.0 0.0 0.00 0.00 0.00 78 1016.7
20260507093306 47 0.0 0.0 0.00 0.00 0.00 78 1016.4
20260507092804 47 0.0 0.0 0.00 0.00 0.00 78 1016.6
20260507092300 47 0.0 0.0 0.00 0.00 0.00 78 1016.6
20260507091756 47 0.0 0.0 0.00 0.00 0.00 78 1016.7
20260507091253 47 0.0 0.0 0.00 0.00 0.00 79 1016.7
20260507090753 47 0.0 0.0 0.00 0.00 0.00 79 1016.8
20260507090250 48 0.0 0.0 0.00 0.00 0.00 79 1016.5
20260507085747 48 0.0 0.0 0.00 0.00 0.00 80 1016.4
20260507085244 47 0.0 0.0 0.00 0.00 0.00 80 1016.5
20260507084742 48 0.0 0.0 0.00 0.00 0.00 81 1016.1
20260507084238 47 0.0 0.0 0.00 0.00 0.00 82 1016.4
20260507083735 47 0.0 0.0 0.00 0.00 0.00 82 1016.4
20260507083232 47 0.0 0.0 0.00 0.00 0.00 83 1016.3
20260507082728 47 0.0 0.0 0.00 0.00 0.00 83 1016.3
20260507082224 47 0.0 0.0 0.00 0.00 0.00 82 1016.2
20260507081721 47 0.0 0.0 0.00 0.00 0.00 81 1016.3
20260507081217 47 0.0 0.0 0.00 0.00 0.00 81 1016.1